Regional Weather Roundup
Issued by NWS State College, PA

Home | Current Version | Previous Version | Text Only | Print | Product List | Glossary Off
Versions: 1 2 3 4 5 6 7 8 9 10 11 12 13 14 15 16 17 18 19 20 21 22 23 24 25 26 27 28 29 30 31 32 33 34 35 36 37 38 39 40 41 42 43 44 45 46 47 48 49 50

000
ASUS41 KCTP 220510
RWRCTP

REGIONAL WEATHER ROUNDUP
NATIONAL WEATHER SERVICE STATE COLLEGE PA
100 AM EDT WED OCT 22 2014

Note: "fair" indicates few or no clouds below 12,000 feet with no
significant weather and/or obstructions to visibility.

* = STATION THAT DOES NOT REPORT PRECIPITATION /E.G. RAIN...SNOW...ETC/
    THUNDER OR FOG.

PAZ002>004-007>009-013>016-020>023-029>032-220600-
WESTERN PENNSYLVANIA

CITY           SKY/WX    TMP DP  RH WIND       PRES   REMARKS
ERIE           CLOUDY    48  43  82 NE15G22   30.10R
MEADVILLE      CLOUDY    46  43  89 NE9       30.06R
FRANKLIN*      CLOUDY    46  41  81 N5        30.05S
NEW CASTLE       N/A     47  46  96 N9        30.07R
BEAVER COUNTY  NOT AVBL
BUTLER*        CLOUDY    46  45  93 NW3       30.04S
PITTSBURGH INT DRIZZLE   48  47  96 NW10      30.03S
PITTSBURGH     LGT RAIN  47  44  90 NW8       30.01S FOG
INDIANA*       CLOUDY    48  46  93 NW5       30.03S
LATROBE        NOT AVBL
WASHINGTON CO* CLOUDY    46  45  93 W3        30.04F
$$

PAZ004>006-010>012-017>019-024>028-033>037-041-042-045-046-049>053-220600-
CENTRAL PENNSYLVANIA

CITY           SKY/WX    TMP DP  RH WIND       PRES   REMARKS
BRADFORD       CLOUDY    45  42  89 N9        30.01S
DUBOIS         CLOUDY    47  46  97 N7        29.98S
CLEARFIELD     CLOUDY    49  46  90 N8        29.98S
JOHNSTOWN      LGT RAIN  45  43  93 NW7       29.96S FOG
ALTOONA        CLOUDY    49  47  93 CALM      29.96S
STATE COLLEGE  CLOUDY    50  47  90 NE6       29.96S
WILLIAMSPORT   CLOUDY    51  47  86 W7        29.95F
SELINSGROVE    CLOUDY    53  48  83 N7        29.94F
FT INDIANTOWN  CLOUDY    54  53  95 NE3       29.91S
CAPITAL CITY   CLOUDY    56  48  74 NW7       29.91F
HARRISBURG     CLOUDY    54  48  80 NW7       29.90F
YORK           CLOUDY    51  49  92 NW3       29.90F
$$

PAZ038>040-043-044-047-048-054-055-060>062-067>071-220600-
EASTERN PENNSYLVANIA

CITY           SKY/WX    TMP DP  RH WIND       PRES   REMARKS
SCRANTON       CLOUDY    52  49  89 CALM      29.93F
MOUNT POCONO   CLOUDY    49  47  93 NE8       29.93S
ALLENTOWN      PTCLDY    49  46  90 E5        29.90F
QUAKERTOWN*    CLOUDY    50  50 100 NE6       29.90F
READING        MOCLDY    55  49  80 NE3       29.89F
LANCASTER      CLOUDY    54  48  80 N5        29.89F
COATESVILLE    LGT RAIN  54  50  87 N6        29.88F
POTTSTOWN      MOCLDY    53  49  86 N6        29.90F
BLUE BELL      CLOUDY    54  54 100 CALM      29.88S
DOYLESTOWN     CLOUDY    52  51  97 N7        29.89S
WILLOW GROVE   NOT AVBL
NORTH PHILA    MOCLDY    57  49  74 N10       29.89F
PHILADELPHIA   CLOUDY    58  50  75 N9        29.87F
$$



USA.gov is the U.S. government's official web portal to all federal, state and local government web resources and services.